Location: Asheville, NC
(35.6000°N, 82.5500°W)
Time: 19:02:06
(UTC-04:00)

Vanguard 2 Rocket - Pass Details

Date: 09 December 2017
Orbit: 553 x 3328 km, 32.9° (Epoch: 23 April)

Event Time Altitude Azimuth Distance (km) Brightness Sun altitude
Rises 23:37:27 0° 270° (W) 6,466 11.4 -73.9°
Reaches altitude 10° 23:41:17 10° 270° (W) 5,707 11.0 -74.4°
Enters shadow 23:43:45 17° 270° (W) 5,245 10.7 -74.7°
